Weather Roundup
Issued by NWS Corpus Christi, TX

Home | Current Version | Previous Version | Text Only | Print | Product List | Glossary On
Versions: 1 2 3 4 5 6 7 8 9 10 11 12 13 14 15 16 17 18 19 20 21 22 23 24 25 26 27 28 29 30 31 32 33 34 35 36 37 38 39 40 41 42 43 44 45 46 47 48 49 50
000
ASUS44 KCRP 090210
HRRCRP

SOUTH TEXAS REGIONAL WEATHER ROUNDUP
NATIONAL WEATHER SERVICE CORPUS CHRISTI TX
800 PM CST MON FEB 08 2016


TXZ229>244-090300-
...CORPUS CHRISTI AREA OBSERVATIONS...

CITY           SKY/WX    TMP DP  RH WIND       PRES   REMARKS
CORPUS CHRISTI CLOUDY    56  23  27 N5        30.32R
NAS CORPUS CHR CLOUDY    58  44  60 NW6       30.32R
ROCKPORT       CLOUDY    57  36  45 NW6       30.31R
KINGSVILLE NAS MOCLDY    57  27  31 NW5       30.33R
ALICE            N/A     53  25  33 NW7       30.33R
FALFURRIAS     PTCLDY    57  32  39 CALM      30.33S
$$

...VICTORIA AREA OBSERVATIONS...

CITY           SKY/WX    TMP DP  RH WIND       PRES   REMARKS
VICTORIA       CLOUDY    50  26  39 W8        30.32R
BEEVILLE       FAIR      55  25  32 NW6       30.32S
PLEASANTON     CLEAR     47  24  40 CALM      30.33S
SAN ANTONIO    PTCLDY    53  22  29 NW6       30.33R
$$

...LAREDO AREA OBSERVATIONS...

CITY           SKY/WX    TMP DP  RH WIND       PRES   REMARKS
LAREDO         CLOUDY    58  22  24 NW6       30.37R
COTULLA        CLOUDY    56  21  25 W6        30.35R
DEL RIO        PTCLDY    52  20  28 W5        30.36R
MCALLEN        CLOUDY    59  36  42 CALM      30.36R
HEBBRONVILLE   NOT AVBL
$$

...OTHER TEXAS OBSERVATIONS...

CITY           SKY/WX    TMP DP  RH WIND       PRES   REMARKS
BROWNSVILLE    CLOUDY    55  39  54 CALM      30.35R
HOUSTON        PTCLDY    54  13  19 NW8       30.27R
COL. STATION   CLEAR     50  12  21 NW7       30.29R
AUSTIN         PTCLDY    45  19  35 NW5       30.31R
WACO           CLEAR     43  14  31 W7        30.30R
FORT WORTH     CLEAR     46  10  23 NW10      30.27R
WICHITA FALLS  CLEAR     41   8  25 NW8       30.30S
LUBBOCK        PTCLDY    39  17  41 N9        30.37R
EL PASO        CLEAR     52  16  24 SE5       30.30S
$$

...MARINE OBSERVATIONS...

STATION/POSITION TIME  SKY/WX   TEMP    WIND        PRES    VSBY  WAVE   SWELL
                                AIR SEA DIR/SP/G                  HT/PER HT/PER
                 (UTC)          (F)     (DEG/KT/KT) (MB)    (MI)  (FT/S) (FT/S)
PORT ARANSAS     0100            61 59  320/  6/  6 1026.9R
BUOY 90 E PORT A 0150            63 70  320/ 21/ 25 1024.9R         5/ 5
BUOY 45 SE BAFFI 0150            63 69  330/  6/  8 1026.3R         4/ 7   3/ 7
BUOY 200 E PT IS 0150                                 N/A           5/ 7
BUOY 15 E GALVES 0150            58 58  310/ 21/ 27 1023.8R         3/ 4
$$



USA.gov is the U.S. government's official web portal to all federal, state and local government web resources and services.